Regional Weather Roundup
Issued by NWS Jackson, KY

Home | Current Version | Previous Version | Graphics & Text | Print | Product List | Glossary On
Versions: 1 2 3 4 5 6 7 8 9 10 11 12 13 14 15 16 17 18 19 20 21 22 23 24 25 26 27 28 29 30 31 32 33 34 35 36 37 38 39 40 41 42 43 44 45 46 47 48 49 50
000
ASUS43 KJKL 100210
RWRJKL

EAST KENTUCKY HOURLY WEATHER ROUNDUP
NATIONAL WEATHER SERVICE JACKSON KY
900 PM EST TUE FEB 09 2016

NOTE: "FAIR" INDICATES FEW OR NO CLOUDS BELOW 12,000 FEET WITH
NO SIGNIFICANT WEATHER AND/OR OBSTRUCTIONS TO VISIBILITY.

* THESE REPORTS ARE NOT UNDER NWS QUALITY CONTROL AND MAY NOT
  REPORT WEATHER SUCH AS PRECIPITATION AND FOG.

KYZ079-080-083-085-087-088-110-112-115-119-120-100300
...EASTERN KENTUCKY...

CITY           SKY/WX    TMP DP  RH WIND       PRES   REMARKS
JACKSON        LGT SNOW  21  14  74 VRB7      29.89R WCI  12
LONDON         CLOUDY    21  14  74 W14       29.94R WCI   8
SOMERSET*      FLURRIES  21  16  79 W12G17    30.00R WCI   9
MONTICELLO*    CLOUDY    21  13  71 W15G23    30.00R WCI   8
WILLIAMSBURG*  CLOUDY    21  18  86 CALM      29.96R
MIDDLESBORO*   LGT SNOW  24  18  78 W6        29.94S WCI  16
HARLAN APT*    CLOUDY    21  18  86 SW6       29.89S WCI  14
HAZARD APT*    FLURRIES N/A N/A N/A W9        29.91R
BLACK MTN*       N/A     10   9  92 VRB3        N/A
BIG SANDY*     FLURRIES  23  15  72 W9        29.88S WCI  13
MOREHEAD APT*  LGT SNOW  21  18  86 VRB6G12   29.92S WCI  14
$$

KYZ035-036-041-042-044-050-067-078-099-100300
...CENTRAL KENTUCKY...

CITY           SKY/WX    TMP DP  RH WIND       PRES   REMARKS
MT STERLING*   FLURRIES  23  18  80 W10       29.93S WCI  12
DANVILLE*      FLURRIES  21  18  86 W9G17     29.97R WCI  11
RICHMOND*      CLOUDY    21  16  79 W13G20    29.94R WCI   9
LEXINGTON      LGT SNOW  21  15  78 W12G20    29.93R WCI   9
$$

KYZ091>093-OHZ055-061-077-WVZ005-015-034-035-042-100300
...SOUTHERN OHIO/WEST VIRGINIA...

CITY           SKY/WX    TMP DP  RH WIND       PRES   REMARKS
COVINGTON      CLOUDY    20  13  74 W17       29.90R WCI   5
COLUMBUS       FLURRIES  24  17  74 W17       29.81R WCI  11
DAYTON         FLURRIES  20  15  81 W17       29.85R WCI   5
WILMINGTON     LGT SNOW  20  17  88 W12       29.84S FOG     WCI   8
HUNTINGTON     FLURRIES  24  17  74 SW6       29.88R WCI  17
CHARLESTON     LGT SNOW  23  19  85 SW12      29.85R VSB 1   WCI  12
PINEVILLE*     LGT SNOW  21  16  79 MISG      29.86S
BECKLEY        LGT SNOW  17  12  80 W9        29.75S WCI   6
$$

VAZ002-007-008-TNZ017-027-036-066-071-100300
...SOUTHWEST VIRGINIA/EAST TENNESSEE...

CITY           SKY/WX    TMP DP  RH WIND       PRES   REMARKS
BRISTOL        FLURRIES  23  13  65 W12       29.89R WCI  12
KNOXVILLE      FLURRIES  26  17  68 W16       29.96R WCI  14
OAK RIDGE      CLOUDY    26  14  60 W12       29.99R WCI  16
CROSSVILLE     CLOUDY    19  12  74 W7        29.94R WCI  10
NASHVILLE      LGT SNOW  23  15  71 NW7       30.09R WCI  15
$$

...KEY TO REMARKS...
VSB - VISIBILITY IN MILES
WCI - WIND CHILL INDEX
HX  - HEAT INDEX

$$



USA.gov is the U.S. government's official web portal to all federal, state and local government web resources and services.